Kalamazoo, MI

12:32 AM EDT on September 21, 2017 (GMT -0400)
Kalamazoo-Battle Creek International

Weather History for KAZO - July, 2013

Change the Weather History Date:

Saturday, July 27, 2013

  Actual Average Record
Temperature  
Mean Temperature 63 °F 72 °F  
Max Temperature 73 °F 83 °F 100 °F (1955)
Min Temperature 53 °F 62 °F 51 °F (1962)
Degree Days  
Heating Degree Days 2 0  
Month to date heating degree days 7 0  
Since 1 June heating degree days 46 48  
Since 1 July heating degree days 7 0  
Cooling Degree Days 0 8  
Month to date cooling degree days 231 213  
Year to date cooling degree days 457 399  
Since 1 June cooling degree days 377 358  
Growing Degree Days 14 (Base 50)    
Moisture  
Dew Point 58 °F    
Average Humidity 77    
Maximum Humidity 93    
Minimum Humidity 61    
Precipitation  
Precipitation T in 0.11 in 1.23 in (2011)
Month to date precipitation 3.08 3.21  
Year to date precipitation 24.43 19.23  
Sea Level Pressure  
Sea Level Pressure 29.86 in    
Wind  
Wind Speed 9 mph (WSW)    
Max Wind Speed 24 mph    
Max Gust Speed 29 mph    
Visibility 9 miles    
Events Rain    
T = Trace of Precipitation, MM = Missing Value Source: NWS Daily Summary

Daily Weather History Graph

Daily Weather History Graph

Search for Another Location

Airport or City:

Trip Planner

Search our weather history database for the weather conditions in past years. The results will help you decide how hot, cold, wet, or windy it might be!

Date:

Astronomy

Jul. 27, 2013 Rise Set
Actual Time 6:30 AM EDT 9:06 PM EDT
Civil Twilight 5:58 AM EDT 9:38 PM EDT
Nautical Twilight 5:17 AM EDT 10:18 PM EDT
Astronomical Twilight 4:32 AM EDT 11:04 PM EDT
Moon 11:45 PM EDT (7/27) 12:17 PM EDT (7/27)
Length of Visible Light 15h 40m
Length of Day
14h 36m
Waning Gibbous, 71% of the Moon is Illuminated
Jul 27
Waning Gibbous
Jul 29
Last Quarter
Aug 6
New
Aug 14
First Quarter
Aug 20
Full

Hourly Weather History & Observations

Time (EDT) Temp. Dew Point Humidity Pressure Visibility Wind Dir Wind Speed Gust Speed Precip Events Conditions
12:53 AM 66.0 °F 62.1 °F 87% 29.89 in 10.0 mi SSW 8.1 mph - N/A   Overcast
1:16 AM 66.2 °F 62.6 °F 88% 29.90 in 10.0 mi South 5.8 mph - N/A   Overcast
1:53 AM 66.9 °F 62.1 °F 84% 29.88 in 10.0 mi South 5.8 mph - N/A   Overcast
2:31 AM 66.2 °F 62.6 °F 88% 29.88 in 10.0 mi SSW 6.9 mph - N/A   Overcast
2:53 AM 66.0 °F 62.1 °F 87% 29.86 in 10.0 mi SSW 6.9 mph - N/A   Mostly Cloudy
3:14 AM 66.2 °F 62.6 °F 88% 29.87 in 10.0 mi SW 5.8 mph - N/A   Overcast
3:53 AM 64.9 °F 62.1 °F 90% 29.86 in 10.0 mi SSW 4.6 mph - N/A   Scattered Clouds
4:40 AM 64.4 °F 60.8 °F 88% 29.86 in 9.0 mi SSW 5.8 mph - N/A   Partly Cloudy
4:53 AM 64.0 °F 62.1 °F 93% 29.85 in 9.0 mi SSW 5.8 mph - N/A   Scattered Clouds
5:00 AM 64.4 °F 62.6 °F 94% 29.86 in 9.0 mi South 8.1 mph - N/A   Mostly Cloudy
5:12 AM 64.4 °F 62.6 °F 94% 29.86 in 9.0 mi SSW 6.9 mph - N/A   Overcast
5:29 AM 66.2 °F 62.6 °F 88% 29.86 in 9.0 mi SW 6.9 mph - N/A   Overcast
5:53 AM 64.9 °F 62.1 °F 90% 29.85 in 9.0 mi SW 4.6 mph - N/A   Overcast
6:51 AM 64.4 °F 62.6 °F 94% 29.86 in 7.0 mi SW 4.6 mph - N/A   Overcast
6:53 AM 64.9 °F 63.0 °F 93% 29.86 in 7.0 mi SW 4.6 mph - N/A   Overcast
7:53 AM 66.0 °F 63.0 °F 90% 29.86 in 7.0 mi WSW 3.5 mph - N/A   Overcast
8:30 AM 66.2 °F 62.6 °F 88% 29.86 in 10.0 mi WNW 6.9 mph - N/A   Mostly Cloudy
8:53 AM 68.0 °F 62.1 °F 81% 29.85 in 10.0 mi NW 6.9 mph - N/A   Scattered Clouds
9:53 AM 69.1 °F 60.1 °F 73% 29.84 in 10.0 mi West 6.9 mph - N/A   Scattered Clouds
10:53 AM 66.0 °F 60.1 °F 81% 29.84 in 10.0 mi WNW 11.5 mph - 0.00 in Rain Light Rain
11:53 AM 71.1 °F 59.0 °F 66% 29.83 in 10.0 mi Variable 6.9 mph - 0.00 in   Mostly Cloudy
12:09 PM 71.6 °F 59.0 °F 64% 29.83 in 10.0 mi NW 8.1 mph - N/A   Mostly Cloudy
12:53 PM 71.1 °F 57.9 °F 63% 29.82 in 10.0 mi WNW 12.7 mph 17.3 mph N/A   Overcast
1:53 PM 70.0 °F 57.0 °F 63% 29.81 in 10.0 mi WNW 11.5 mph 19.6 mph N/A   Overcast
2:53 PM 69.1 °F 55.9 °F 63% 29.82 in 10.0 mi WNW 13.8 mph 24.2 mph N/A   Overcast
3:53 PM 66.9 °F 55.9 °F 68% 29.83 in 10.0 mi WNW 18.4 mph 26.5 mph N/A   Mostly Cloudy
4:31 PM 62.6 °F 53.6 °F 72% 29.86 in 5.0 mi NW 19.6 mph 24.2 mph N/A   Overcast
4:53 PM 61.0 °F 54.0 °F 78% 29.87 in 6.0 mi NNW 16.1 mph 25.3 mph N/A   Overcast
5:53 PM 62.1 °F 52.0 °F 70% 29.86 in 10.0 mi WNW 13.8 mph 23.0 mph N/A   Overcast
6:18 PM 60.8 °F 51.8 °F 72% 29.87 in 10.0 mi WNW 16.1 mph 21.9 mph N/A   Overcast
6:53 PM 62.1 °F 51.1 °F 67% 29.87 in 10.0 mi NW 11.5 mph - N/A   Mostly Cloudy
7:53 PM 60.1 °F 50.0 °F 69% 29.88 in 10.0 mi WNW 6.9 mph - N/A   Mostly Cloudy
8:53 PM 59.0 °F 48.9 °F 69% 29.89 in 10.0 mi NW 9.2 mph - N/A   Overcast
9:53 PM 57.9 °F 46.9 °F 67% 29.90 in 10.0 mi WNW 6.9 mph - N/A   Overcast
10:53 PM 57.0 °F 48.0 °F 72% 29.90 in 10.0 mi WSW 3.5 mph - N/A   Overcast
11:53 PM 55.9 °F 48.9 °F 77% 29.89 in 10.0 mi SW 4.6 mph - N/A   Overcast